Regional Weather Roundup
Issued by NWS

Home | Current Version | Previous Version | Graphics & Text | Print | Product List | Glossary On
Versions: 1 2 3 4 5 6 7 8 9 10 11 12 13 14 15 16 17 18 19 20 21 22 23 24 25 26 27 28 29 30 31 32 33 34 35 36 37 38 39 40 41 42 43 44 45 46 47 48 49 50
000
ASUS43 KLMK 211110
RWRKY
KENTUCKY REGIONAL WEATHER ROUNDUP
NATIONAL WEATHER SERVICE LOUISVILLE KY
700 AM EDT SAT OCT 21 2017

NOTE "FAIR" INDICATES FEW OR NO CLOUDS BELOW 12,000 FEET
WITH NO SIGNIFICANT WEATHER AND/OR OBSTRUCTIONS TO VISIBILITY.

KYZ001>023-026-027-061>063-070>075-211200-
WESTERN AND SOUTH CENTRAL KENTUCKY

CITY           SKY/WX    TMP DP  RH WIND       PRES   REMARKS
PADUCAH        CLOUDY    61  47  59 S6        30.12R
HENDERSON      CLOUDY    51  48  89 CALM      30.16R
OWENSBORO      CLOUDY    54  49  83 CALM      30.18R
HOPKINSVILLE   CLOUDY    53  47  79 SE9       30.17R
BOWLING GREEN  FOG       47  47 100 CALM      30.21R VSB 3/4
GLASGOW        CLOUDY    47  47 100 CALM      30.22R
$$

KYZ024-025-028>034-038-045-046-053-211200-
NORTH CENTRAL KENTUCKY

CITY           SKY/WX    TMP DP  RH WIND       PRES   REMARKS
LOUISVILLE/SDF PTCLDY    54  50  86 SE7       30.20R
LOUISVILLE/LOU CLOUDY    52  51  97 CALM      30.21R
FORT KNOX      CLOUDY    53  49  87 CALM      30.19R
$$

KYZ035>037-039>044-047>052-055>060-089>105-211200-
NORTHEAST KENTUCKY

CITY           SKY/WX    TMP DP  RH WIND       PRES   REMARKS
LEXINGTON      PTCLDY    53  49  86 SE5       30.23R
COVINGTON      MOCLDY    54  53  97 S3        30.21R
FRANKFORT      MOCLDY    48  44  86 CALM      30.22R
$$

KYZ054-064>069-076>088-106>120-211200-
SOUTHEAST KENTUCKY

CITY           SKY/WX    TMP DP  RH WIND       PRES   REMARKS
JACKSON        CLOUDY    53  49  86 S5        30.25R
LONDON         CLOUDY    46  44  93 CALM      30.25R
SOMERSET       PTCLDY    43  43 100 CALM      30.26R
MIDDLESBORO    FOG       44  44 100 CALM      30.29R VSB 1/4
MONTICELLO     CLOUDY    44  43  96 W7        30.26R
$$





USA.gov is the U.S. government's official web portal to all federal, state and local government web resources and services.